Wetterdaten: aktuell Samstag, 16.12.2017 00:35
Datum Zeit Temp. I. Temp. A. Feuchte I. Feuchte A. Luftdruck Regen Wind Richtung Richtung Sonnenschein Taupunkt Windchill Windben
16.12.2017 00:35 19,1 C 1,6 C 42 % 86 % 1003,0 hPa 0,0 l/m 0,6 km/h (0 Bft) W 270 0 min -0,5 C 1,6 C 4,7 km/h (1 Bft)
16.12.2017 00:30 19,1 C 1,6 C 42 % 86 % 1003,0 hPa 0,0 l/m 0,3 km/h (0 Bft) W 270 0 min -0,5 C 1,6 C 2,4 km/h (1 Bft)
16.12.2017 00:25 19,1 C 1,6 C 42 % 85 % 1002,8 hPa 0,0 l/m 0,2 km/h (0 Bft) W-SW 247 0 min -0,6 C 1,6 C 0,0 km/h (0 Bft)
16.12.2017 00:20 19,1 C 1,5 C 42 % 85 % 1002,8 hPa 0,0 l/m 0,2 km/h (0 Bft) W-SW 247 0 min -0,7 C 1,5 C 0,0 km/h (0 Bft)
16.12.2017 00:15 19,1 C 1,5 C 42 % 85 % 1002,8 hPa 0,0 l/m 0,3 km/h (0 Bft) W-SW 247 0 min -0,7 C 1,5 C 0,0 km/h (0 Bft)
16.12.2017 00:10 19,2 C 1,5 C 42 % 85 % 1002,8 hPa 0,0 l/m 0,2 km/h (0 Bft) SW 225 0 min -0,7 C 1,5 C 0,0 km/h (0 Bft)
16.12.2017 00:05 19,2 C 1,6 C 42 % 85 % 1002,6 hPa 0,0 l/m 0,3 km/h (0 Bft) W-SW 247 0 min -0,6 C 1,6 C 0,0 km/h (0 Bft)
16.12.2017 00:00 19,2 C 1,6 C 42 % 85 % 1002,6 hPa 0,0 l/m 0,3 km/h (0 Bft) SW 225 0 min -0,6 C 1,6 C 0,0 km/h (0 Bft)
15.12.2017 23:55 19,2 C 1,6 C 42 % 85 % 1002,6 hPa 0,0 l/m 0,5 km/h (0 Bft) SW 225 0 min -0,6 C 1,6 C 3,4 km/h (1 Bft)
15.12.2017 23:50 19,2 C 1,6 C 42 % 85 % 1002,6 hPa 0,0 l/m 0,8 km/h (0 Bft) W 270 0 min -0,6 C 1,6 C 0,0 km/h (0 Bft)
15.12.2017 23:45 19,2 C 1,6 C 42 % 85 % 1002,4 hPa 0,0 l/m 1,0 km/h (0 Bft) W-SW 247 0 min -0,6 C 1,6 C 0,0 km/h (0 Bft)
15.12.2017 23:40 19,2 C 1,6 C 42 % 85 % 1002,4 hPa 0,0 l/m 0,6 km/h (0 Bft) W-SW 247 0 min -0,6 C 1,6 C 3,2 km/h (1 Bft)
15.12.2017 23:35 19,2 C 1,6 C 42 % 85 % 1002,4 hPa 0,0 l/m 0,3 km/h (0 Bft) W-SW 247 0 min -0,6 C 1,6 C 1,6 km/h (1 Bft)
15.12.2017 23:30 19,2 C 1,7 C 42 % 85 % 1002,4 hPa 0,0 l/m 0,3 km/h (0 Bft) W 270 0 min -0,5 C 1,7 C 0,0 km/h (0 Bft)
15.12.2017 23:25 19,2 C 1,6 C 42 % 85 % 1002,2 hPa 0,0 l/m 0,3 km/h (0 Bft) W-SW 247 0 min -0,6 C 1,6 C 0,0 km/h (0 Bft)
15.12.2017 23:20 19,2 C 1,6 C 42 % 85 % 1002,2 hPa 0,0 l/m 0,5 km/h (0 Bft) S 180 0 min -0,6 C 1,6 C 0,0 km/h (0 Bft)
15.12.2017 23:15 19,2 C 1,6 C 42 % 85 % 1002,2 hPa 0,0 l/m 0,5 km/h (0 Bft) S-SW 202 0 min -0,6 C 1,6 C 0,0 km/h (0 Bft)
15.12.2017 23:10 19,2 C 1,6 C 42 % 85 % 1002,2 hPa 0,0 l/m 0,2 km/h (0 Bft) W-NW 292 0 min -0,6 C 1,6 C 2,9 km/h (1 Bft)
15.12.2017 23:05 19,2 C 1,6 C 42 % 85 % 1001,9 hPa 0,0 l/m 0,0 km/h (0 Bft) W-SW 247 0 min -0,6 C 1,6 C 0,0 km/h (0 Bft)
15.12.2017 23:00 19,2 C 1,6 C 42 % 85 % 1001,9 hPa 0,7 l/m 0,0 km/h (0 Bft) S-SW 202 0 min -0,6 C 1,6 C 0,0 km/h (0 Bft)
15.12.2017 22:55 19,2 C 1,6 C 42 % 85 % 1001,9 hPa 0,0 l/m 0,0 km/h (0 Bft) S-SW 202 0 min -0,6 C 1,6 C 0,0 km/h (0 Bft)
15.12.2017 22:50 19,2 C 1,6 C 42 % 85 % 1001,9 hPa 0,0 l/m 0,0 km/h (0 Bft) W-SW 247 0 min -0,6 C 1,6 C 0,0 km/h (0 Bft)
15.12.2017 22:45 19,2 C 1,6 C 42 % 85 % 1001,9 hPa 0,0 l/m 0,0 km/h (0 Bft) W-SW 247 0 min -0,6 C 1,6 C 0,0 km/h (0 Bft)
15.12.2017 22:40 19,2 C 1,6 C 42 % 85 % 1001,9 hPa 0,0 l/m 0,0 km/h (0 Bft) W-SW 247 0 min -0,6 C 1,6 C 0,0 km/h (0 Bft)
15.12.2017 22:35 19,2 C 1,7 C 42 % 85 % 1001,9 hPa 0,0 l/m 0,0 km/h (0 Bft) W-SW 247 0 min -0,5 C 1,7 C 0,0 km/h (0 Bft)
15.12.2017 22:30 19,3 C 1,7 C 42 % 85 % 1001,9 hPa 0,0 l/m 0,0 km/h (0 Bft) W-SW 247 0 min -0,5 C 1,7 C 0,0 km/h (0 Bft)
15.12.2017 22:25 19,3 C 1,7 C 42 % 85 % 1001,7 hPa 0,0 l/m 0,0 km/h (0 Bft) W-SW 247 0 min -0,5 C 1,7 C 0,0 km/h (0 Bft)
15.12.2017 22:20 19,2 C 1,7 C 42 % 85 % 1001,7 hPa 0,0 l/m 0,0 km/h (0 Bft) W-SW 247 0 min -0,5 C 1,7 C 0,0 km/h (0 Bft)
15.12.2017 22:15 19,2 C 1,7 C 42 % 85 % 1001,7 hPa 0,0 l/m 0,0 km/h (0 Bft) SW 225 0 min -0,5 C 1,7 C 0,0 km/h (0 Bft)
15.12.2017 22:10 19,2 C 1,7 C 42 % 84 % 1001,7 hPa 0,0 l/m 0,0 km/h (0 Bft) SW 225 0 min -0,7 C 1,7 C 0,0 km/h (0 Bft)
15.12.2017 22:05 19,2 C 1,7 C 42 % 84 % 1001,8 hPa 0,0 l/m 0,0 km/h (0 Bft) SW 225 0 min -0,7 C 1,7 C 0,0 km/h (0 Bft)
15.12.2017 22:00 19,4 C 1,7 C 42 % 84 % 1001,8 hPa 0,0 l/m 0,0 km/h (0 Bft) SW 225 0 min -0,7 C 1,7 C 0,0 km/h (0 Bft)
15.12.2017 21:55 19,4 C 1,7 C 42 % 84 % 1001,8 hPa 0,0 l/m 0,0 km/h (0 Bft) SW 225 0 min -0,7 C 1,7 C 0,0 km/h (0 Bft)
15.12.2017 21:50 19,4 C 1,7 C 42 % 84 % 1001,8 hPa 0,0 l/m 0,0 km/h (0 Bft) SW 225 0 min -0,7 C 1,7 C 0,0 km/h (0 Bft)
15.12.2017 21:45 19,4 C 1,7 C 42 % 84 % 1001,6 hPa 0,0 l/m 0,0 km/h (0 Bft) S-SW 202 0 min -0,7 C 1,7 C 0,0 km/h (0 Bft)
15.12.2017 21:40 19,4 C 1,7 C 42 % 84 % 1001,6 hPa 0,0 l/m 0,0 km/h (0 Bft) SW 225 0 min -0,7 C 1,7 C 0,0 km/h (0 Bft)
15.12.2017 21:35 19,4 C 1,7 C 42 % 84 % 1001,6 hPa 0,0 l/m 0,0 km/h (0 Bft) SW 225 0 min -0,7 C 1,7 C 0,0 km/h (0 Bft)
15.12.2017 21:30 19,4 C 1,7 C 42 % 84 % 1001,6 hPa 0,0 l/m 0,0 km/h (0 Bft) SW 225 0 min -0,7 C 1,7 C 0,0 km/h (0 Bft)
15.12.2017 21:25 19,4 C 1,7 C 42 % 84 % 1001,5 hPa 0,0 l/m 0,0 km/h (0 Bft) SW 225 0 min -0,7 C 1,7 C 0,0 km/h (0 Bft)
15.12.2017 21:20 19,4 C 1,7 C 42 % 84 % 1001,5 hPa 0,0 l/m 0,0 km/h (0 Bft) SW 225 0 min -0,7 C 1,7 C 0,0 km/h (0 Bft)
15.12.2017 21:15 19,4 C 1,7 C 42 % 84 % 1001,5 hPa 0,0 l/m 0,0 km/h (0 Bft) SW 225 0 min -0,7 C 1,7 C 0,0 km/h (0 Bft)
_ Min-Zeit 00:35 09:15 02:10 13:55 04:05 - 23:05 - - - 05:30 08:05 00:25
Minimum _ 19,1 C 0,5 C 40 % 75 % 993,2 hPa - 0,0 km/h (0 Bft) - - - -1,6 C -1,4 C 0,0 km/h (0 Bft)
_ Max-Zeit 11:30 13:35 20:55 00:35 00:35 23:00 12:40 - - 13:30 17:50 13:40 11:35
Maximum _ 20,2 C 3,7 C 43 % 86 % 1003,0 hPa 0,7 l/m 9,5 km/h
S-SW (2 Bft)
- - 5 min -0,2 C 3,5 C 16,1 km/h
W-SW (3 Bft)
Durchschnitt _ 19,8 C 1,8 C 42 % 82 % 997,9 hPa #3,4 l/m 2,2 km/h (1 Bft) SW - #0 min. -0,9 C 1,4 C 2,9 km/h (1 Bft)